EW8588 Weather Reports


Display with metric or nautical units.
time (UTC)temp
F
wind
direction
speed
MPH
gust
MPH
rain 1hr
in
rain 24hr
in
rain mn
in
humidity
%
barometer
mb
20260505124507 74 160 1.0 4.0 0.00 0.00 0.00 89 1007.6
20260505123003 74 121 0.0 2.0 0.00 0.00 0.00 89 1007.3
20260505121559 73 176 0.0 4.0 0.00 0.00 0.00 89 1007.3
20260505120111 73 167 0.0 4.0 0.00 0.00 0.00 89 1007.6
20260505114552 73 109 0.0 5.0 0.00 0.00 0.00 89 1007.3
20260505113049 73 160 1.0 3.0 0.00 0.00 0.00 89 1007.0
20260505111545 73 134 0.0 2.0 0.00 0.00 0.00 89 1007.4
20260505101527 73 134 0.0 2.0 0.00 0.00 0.00 88 1007.3
20260505100026 73 124 1.0 3.0 0.00 0.00 0.00 88 1007.2
20260505094520 72 128 0.0 2.0 0.00 0.00 0.00 88 1007.3
20260505093019 72 128 0.0 3.0 0.00 0.00 0.00 88 1007.5
20260505091526 72 108 0.0 2.0 0.00 0.00 0.00 88 1007.5
20260505090035 73 98 0.0 4.0 0.00 0.00 0.00 87 1007.6
20260505084513 73 167 1.0 3.0 0.00 0.00 0.00 86 1007.5
20260505083009 73 98 0.0 5.0 0.00 0.00 0.00 86 1007.5
20260505081511 73 144 0.0 3.0 0.00 0.00 0.00 86 1007.7
20260505080001 73 169 0.0 3.0 0.00 0.00 0.00 86 1007.8
20260505074602 73 98 1.0 5.0 0.00 0.00 0.00 86 1007.9
20260505073111 72 104 0.0 3.0 0.00 0.00 0.00 86 1007.9
20260505071559 72 122 0.0 2.0 0.00 0.00 0.00 86 1008.1
20260505070053 72 168 0.0 3.0 0.00 0.00 0.00 87 1008.4
20260505064548 71 92 0.0 3.0 0.00 0.00 0.00 87 1008.6
20260505063046 71 125 0.0 1.0 0.00 0.00 0.00 86 1009.0
20260505061552 71 160 0.0 1.0 0.00 0.00 0.00 86 1009.0
20260505060044 71 153 0.0 3.0 0.00 0.00 0.00 85 1009.0
20260505054606 71 149 0.0 4.0 0.00 0.00 0.00 84 1009.1
20260505053054 71 129 0.0 3.0 0.00 0.00 0.00 85 1009.0
20260505051541 71 100 0.0 3.0 0.00 0.00 0.00 84 1009.2
20260505041537 71 175 0.0 5.0 0.00 0.00 0.00 83 1009.7
20260505040038 71 136 0.0 4.0 0.00 0.00 0.00 83 1009.8
20260505034538 71 157 0.0 6.0 0.00 0.00 0.00 82 1009.9
20260505033037 71 150 0.0 2.0 0.00 0.00 0.00 81 1009.9
20260505031546 71 154 0.0 2.0 0.00 0.00 0.00 81 1009.8
20260505030036 71 120 0.0 4.0 0.00 0.00 0.00 80 1009.8
20260505024540 71 150 0.0 3.0 0.00 0.00 0.00 79 1009.9
20260505023035 72 152 0.0 3.0 0.00 0.00 0.00 79 1009.8
20260505021535 72 139 0.0 5.0 0.00 0.00 0.00 78 1009.7
20260505020035 72 146 0.0 3.0 0.00 0.00 0.00 77 1009.7
20260505014537 73 152 1.0 3.0 0.00 0.00 0.00 76 1009.5
20260505013033 73 185 0.0 5.0 0.00 0.00 0.00 76 1009.4
20260505011535 73 148 1.0 5.0 0.00 0.00 0.00 76 1009.5
20260505010032 73 151 1.0 5.0 0.00 0.00 0.00 75 1009.4
20260505004544 74 174 1.0 6.0 0.00 0.00 0.00 73 1009.3
20260505003031 74 158 2.0 7.0 0.00 0.00 0.00 73 1009.3
20260505001531 74 136 1.0 5.0 0.00 0.00 0.00 72 1009.3
20260505000044 75 132 1.0 7.0 0.00 0.00 0.00 72 1009.4
20260504234627 75 110 1.0 7.0 0.00 0.00 0.00 71 1009.4
20260504233026 75 162 1.0 6.0 0.00 0.00 0.00 70 1009.6
20260504231524 75 179 2.0 8.0 0.00 0.00 0.00 70 1009.7
20260504230024 76 98 2.0 9.0 0.00 0.00 0.00 69 1010.1
20260504224523 76 193 2.0 8.0 0.00 0.00 0.00 69 1010.0
20260504223022 76 177 1.0 6.0 0.00 0.00 0.00 69 1010.3
20260504221519 76 153 1.0 6.0 0.00 0.00 0.00 69 1010.6
20260504220019 76 131 2.0 6.0 0.00 0.00 0.00 68 1010.6
20260504214518 77 73 2.0 7.0 0.00 0.00 0.00 67 1010.7
20260504213016 77 176 2.0 5.0 0.00 0.00 0.00 65 1010.8
20260504211515 78 87 2.0 6.0 0.00 0.00 0.00 65 1010.8
20260504210021 78 200 3.0 6.0 0.00 0.00 0.00 64 1011.1
20260504204513 78 158 1.0 5.0 0.00 0.00 0.00 65 1011.2
20260504203011 79 134 2.0 7.0 0.00 0.00 0.00 61 1011.4
20260504201513 80 158 1.0 5.0 0.00 0.00 0.00 60 1011.5
20260504200010 80 278 0.0 5.0 0.00 0.00 0.00 59 1011.8
20260504194507 80 182 2.0 5.0 0.00 0.00 0.00 61 1011.8
20260504193007 81 132 0.0 7.0 0.00 0.00 0.00 61 1012.2
20260504191506 81 120 0.0 6.0 0.00 0.00 0.00 59 1012.3
20260504190004 81 168 1.0 5.0 0.00 0.00 0.00 57 1012.4
20260504184502 81 110 1.0 5.0 0.00 0.00 0.00 57 1012.3
20260504183107 81 120 1.0 5.0 0.00 0.00 0.00 56 1012.5
20260504181600 80 251 1.0 5.0 0.00 0.00 0.00 62 1012.9
20260504180111 80 214 2.0 8.0 0.00 0.00 0.00 58 1013.0
20260504174555 80 176 2.0 7.0 0.00 0.00 0.00 56 1013.1
20260504173053 80 148 1.0 5.0 0.00 0.00 0.00 57 1013.4
20260504171550 79 153 3.0 8.0 0.00 0.00 0.00 58 1013.5